Year,Month,Day,Hour,Minute,Value (Times are PST for temperature in C)
2008,04,01,00,00,-1.50
2008,04,01,00,01,-1.50
2008,04,01,00,02,-1.50
2008,04,01,00,03,-1.60
2008,04,01,00,04,-1.60
2008,04,01,00,05,-1.60
2008,04,01,00,06,-1.60
2008,04,01,00,07,-1.60
2008,04,01,00,08,-1.60
2008,04,01,00,09,-1.60
2008,04,01,00,10,-1.60
2008,04,01,00,11,-1.60
2008,04,01,00,12,-1.60
2008,04,01,00,13,-1.60
2008,04,01,00,14,-1.60
2008,04,01,00,15,-1.60
2008,04,01,00,16,-1.60
2008,04,01,00,17,-1.60
2008,04,01,00,18,-1.60
2008,04,01,00,19,-1.60
2008,04,01,00,20,-1.60
2008,04,01,00,21,-1.60
2008,04,01,00,22,-1.70
2008,04,01,00,23,-1.70
2008,04,01,00,24,-1.70
2008,04,01,00,25,-1.60
2008,04,01,00,26,-1.60
2008,04,01,00,27,-1.60
2008,04,01,00,28,-1.70
2008,04,01,00,29,-1.60
2008,04,01,00,30,-1.70
2008,04,01,00,31,-1.70
2008,04,01,00,32,-1.70
2008,04,01,00,33,-1.70
2008,04,01,00,34,-1.70
2008,04,01,00,35,-1.70
2008,04,01,00,36,-1.70
2008,04,01,00,37,-1.70
2008,04,01,00,38,-1.70
2008,04,01,00,39,-1.70
2008,04,01,00,40,-1.70
2008,04,01,00,41,-1.70
2008,04,01,00,42,-1.70
2008,04,01,00,43,-1.70
2008,04,01,00,44,-1.70
2008,04,01,00,45,-1.70
2008,04,01,00,46,-1.70
2008,04,01,00,47,-1.80
2008,04,01,00,48,-1.80
2008,04,01,00,49,-1.80
2008,04,01,00,50,-1.80
2008,04,01,00,51,-1.80
2008,04,01,00,52,-1.80
2008,04,01,00,53,-1.80
2008,04,01,00,54,-1.80
2008,04,01,00,55,-1.80
2008,04,01,00,56,-1.80
2008,04,01,00,57,-1.80
2008,04,01,00,58,-1.80
2008,04,01,00,59,-1.80
2008,04,01,01,00,-1.80
2008,04,01,01,01,-1.80
2008,04,01,01,02,-1.80
2008,04,01,01,03,-1.80
2008,04,01,01,04,-1.80
2008,04,01,01,05,-1.80
2008,04,01,01,06,-1.80
2008,04,01,01,07,-1.80
2008,04,01,01,08,-1.90
2008,04,01,01,09,-1.90
2008,04,01,01,10,-1.90
2008,04,01,01,11,-1.90
2008,04,01,01,12,-1.90
2008,04,01,01,13,-1.90
2008,04,01,01,14,-1.90
2008,04,01,01,15,-1.90
2008,04,01,01,16,-1.90
2008,04,01,01,17,-1.90
2008,04,01,01,18,-1.90
2008,04,01,01,19,-1.90
2008,04,01,01,20,-1.90
2008,04,01,01,21,-1.90
2008,04,01,01,22,-1.90
2008,04,01,01,23,-1.90
2008,04,01,01,24,-1.90
2008,04,01,01,25,-1.90
2008,04,01,01,26,-2.00
2008,04,01,01,27,-2.00
2008,04,01,01,28,-2.00
2008,04,01,01,29,-2.00
2008,04,01,01,30,-2.00
2008,04,01,01,31,-2.00
2008,04,01,01,32,-2.00
2008,04,01,01,33,-2.00
2008,04,01,01,34,-2.00
2008,04,01,01,35,-2.10
2008,04,01,01,36,-2.10
2008,04,01,01,37,-2.10
2008,04,01,01,38,-2.10
2008,04,01,01,39,-2.10
2008,04,01,01,40,-2.10
2008,04,01,01,41,-2.10
2008,04,01,01,42,-2.10
2008,04,01,01,43,-2.10
2008,04,01,01,44,-2.10
2008,04,01,01,45,-2.10
2008,04,01,01,46,-2.10
2008,04,01,01,47,-2.10
2008,04,01,01,48,-2.10
2008,04,01,01,49,-2.10
2008,04,01,01,50,-2.10
2008,04,01,01,51,-2.10
2008,04,01,01,52,-2.10
2008,04,01,01,53,-2.10
2008,04,01,01,54,-2.10
2008,04,01,01,55,-2.10
2008,04,01,01,56,-2.10
2008,04,01,01,57,-2.10
2008,04,01,01,58,-2.10
2008,04,01,01,59,-2.10
2008,04,01,02,00,-2.10
2008,04,01,02,01,-2.10
2008,04,01,02,02,-2.10
2008,04,01,02,03,-2.10
2008,04,01,02,04,-2.10
2008,04,01,02,05,-2.10
2008,04,01,02,06,-2.10
2008,04,01,02,07,-2.10
2008,04,01,02,08,-2.10
2008,04,01,02,09,-2.10
2008,04,01,02,10,-2.10
2008,04,01,02,11,-2.10
2008,04,01,02,12,-2.10
2008,04,01,02,13,-2.10
2008,04,01,02,14,-2.20
2008,04,01,02,15,-2.20
2008,04,01,02,16,-2.20
2008,04,01,02,17,-2.20
2008,04,01,02,18,-2.20
2008,04,01,02,19,-2.20
2008,04,01,02,20,-2.20
2008,04,01,02,21,-2.20
2008,04,01,02,22,-2.20
2008,04,01,02,23,-2.20
2008,04,01,02,24,-2.20
2008,04,01,02,25,-2.20
2008,04,01,02,26,-2.20
2008,04,01,02,27,-2.30
2008,04,01,02,28,-2.30
2008,04,01,02,29,-2.30
2008,04,01,02,30,-2.30
2008,04,01,02,31,-2.30
2008,04,01,02,32,-2.30
2008,04,01,02,33,-2.30
2008,04,01,02,34,-2.30
2008,04,01,02,35,-2.30
2008,04,01,02,36,-2.30
2008,04,01,02,37,-2.30
2008,04,01,02,38,-2.30
2008,04,01,02,39,-2.30
2008,04,01,02,40,-2.40
2008,04,01,02,41,-2.40
2008,04,01,02,42,-2.40
2008,04,01,02,43,-2.40
2008,04,01,02,44,-2.40
2008,04,01,02,45,-2.40
2008,04,01,02,46,-2.40
2008,04,01,02,47,-2.40
2008,04,01,02,48,-2.40
2008,04,01,02,49,-2.40
2008,04,01,02,50,-2.40
2008,04,01,02,51,-2.50
2008,04,01,02,52,-2.50
2008,04,01,02,53,-2.50
2008,04,01,02,54,-2.50
2008,04,01,02,55,-2.50
2008,04,01,02,56,-2.50
2008,04,01,02,57,-2.50
2008,04,01,02,58,-2.50
2008,04,01,02,59,-2.50
2008,04,01,03,00,-2.50
2008,04,01,03,01,-2.50
2008,04,01,03,02,-2.50
2008,04,01,03,03,-2.50
2008,04,01,03,04,-2.50
2008,04,01,03,05,-2.50
2008,04,01,03,06,-2.50
2008,04,01,03,07,-2.50
2008,04,01,03,08,-2.50
2008,04,01,03,09,-2.50
2008,04,01,03,10,-2.60
2008,04,01,03,11,-2.60
2008,04,01,03,12,-2.60
2008,04,01,03,13,-2.60
2008,04,01,03,14,-2.60
2008,04,01,03,15,-2.50
2008,04,01,03,16,-2.50
2008,04,01,03,17,-2.50
2008,04,01,03,18,-2.50
2008,04,01,03,19,-2.50
2008,04,01,03,20,-2.50
2008,04,01,03,21,-2.50
2008,04,01,03,22,-2.50
2008,04,01,03,23,-2.50
2008,04,01,03,24,-2.50
2008,04,01,03,25,-2.50
2008,04,01,03,26,-2.50
2008,04,01,03,27,-2.50
2008,04,01,03,28,-2.50
2008,04,01,03,29,-2.50
2008,04,01,03,30,-2.50
2008,04,01,03,31,-2.40
2008,04,01,03,32,-2.40
2008,04,01,03,33,-2.40
2008,04,01,03,34,-2.40
2008,04,01,03,35,-2.40
2008,04,01,03,36,-2.50
2008,04,01,03,37,-2.50
2008,04,01,03,38,-2.50
2008,04,01,03,39,-2.50
2008,04,01,03,40,-2.50
2008,04,01,03,41,-2.50
2008,04,01,03,42,-2.50
2008,04,01,03,43,-2.50
2008,04,01,03,44,-2.50
2008,04,01,03,45,-2.50
2008,04,01,03,46,-2.50
2008,04,01,03,47,-2.50
2008,04,01,03,48,-2.50
2008,04,01,03,49,-2.50
2008,04,01,03,50,-2.60
2008,04,01,03,51,-2.60
2008,04,01,03,52,-2.60
2008,04,01,03,53,-2.60
2008,04,01,03,54,-2.60
2008,04,01,03,55,-2.60
2008,04,01,03,56,-2.60
2008,04,01,03,57,-2.60
2008,04,01,03,58,-2.60
2008,04,01,03,59,-2.60
2008,04,01,04,00,-2.60
2008,04,01,04,01,-2.60
2008,04,01,04,02,-2.60
2008,04,01,04,03,-2.60
2008,04,01,04,04,-2.60
2008,04,01,04,05,-2.60
2008,04,01,04,06,-2.60
2008,04,01,04,07,-2.60
2008,04,01,04,08,-2.70
2008,04,01,04,09,-2.70
2008,04,01,04,10,-2.70
2008,04,01,04,11,-2.70
2008,04,01,04,12,-2.70
2008,04,01,04,13,-2.70
2008,04,01,04,14,-2.70
2008,04,01,04,15,-2.70
2008,04,01,04,16,-2.70
2008,04,01,04,17,-2.70
2008,04,01,04,18,-2.70
2008,04,01,04,19,-2.70
2008,04,01,04,20,-2.80
2008,04,01,04,21,-2.80
2008,04,01,04,22,-2.80
2008,04,01,04,23,-2.80
2008,04,01,04,24,-2.80
2008,04,01,04,25,-2.80
2008,04,01,04,26,-2.80
2008,04,01,04,27,-2.80
2008,04,01,04,28,-2.80
2008,04,01,04,29,-2.80
2008,04,01,04,30,-2.80
2008,04,01,04,31,-2.80
2008,04,01,04,32,-2.80
2008,04,01,04,33,-2.80
2008,04,01,04,34,-2.80
2008,04,01,04,35,-2.80
2008,04,01,04,36,-2.80
2008,04,01,04,37,-2.80
2008,04,01,04,38,-2.80
2008,04,01,04,39,-2.80
2008,04,01,04,40,-2.80
2008,04,01,04,41,-2.90
2008,04,01,04,42,-2.90
2008,04,01,04,43,-2.90
2008,04,01,04,44,-2.90
2008,04,01,04,45,-2.90
2008,04,01,04,46,-2.90
2008,04,01,04,47,-2.90
2008,04,01,04,48,-2.90
2008,04,01,04,49,-2.90
2008,04,01,04,50,-2.90
2008,04,01,04,51,-2.90
2008,04,01,04,52,-2.90
2008,04,01,04,53,-2.90
2008,04,01,04,54,-2.90
2008,04,01,04,55,-2.90
2008,04,01,04,56,-2.90
2008,04,01,04,57,-2.90
2008,04,01,04,58,-2.90
2008,04,01,04,59,-2.90
2008,04,01,05,00,-2.90
2008,04,01,05,01,-2.90
2008,04,01,05,02,-2.90
2008,04,01,05,03,-2.90
2008,04,01,05,04,-2.90
2008,04,01,05,05,-2.90
2008,04,01,05,06,-2.90
2008,04,01,05,07,-2.90
2008,04,01,05,08,-2.90
2008,04,01,05,09,-2.90
2008,04,01,05,10,-2.90
2008,04,01,05,11,-3.00
2008,04,01,05,12,-3.00
2008,04,01,05,13,-2.90
2008,04,01,05,14,-3.00
2008,04,01,05,15,-3.00
2008,04,01,05,16,-3.00
2008,04,01,05,17,-3.00
2008,04,01,05,18,-3.00
2008,04,01,05,19,-3.00
2008,04,01,05,20,-3.00
2008,04,01,05,21,-3.00
2008,04,01,05,22,-3.00
2008,04,01,05,23,-3.00
2008,04,01,05,24,-3.00
2008,04,01,05,25,-3.00
2008,04,01,05,26,-3.00
2008,04,01,05,27,-3.10
2008,04,01,05,28,-3.10
2008,04,01,05,29,-3.10
2008,04,01,05,30,-3.10
2008,04,01,05,31,-3.10
2008,04,01,05,32,-3.10
2008,04,01,05,33,-3.10
2008,04,01,05,34,-3.10
2008,04,01,05,35,-3.10
2008,04,01,05,36,-3.00
2008,04,01,05,37,-3.00
2008,04,01,05,38,-3.00
2008,04,01,05,39,-3.00
2008,04,01,05,40,-3.00
2008,04,01,05,41,-3.00
2008,04,01,05,42,-3.00
2008,04,01,05,43,-3.00
2008,04,01,05,44,-3.00
2008,04,01,05,45,-3.00
2008,04,01,05,46,-3.00
2008,04,01,05,47,-3.00
2008,04,01,05,48,-3.00
2008,04,01,05,49,-3.00
2008,04,01,05,50,-3.00
2008,04,01,05,51,-3.10
2008,04,01,05,52,-3.10
2008,04,01,05,53,-3.00
2008,04,01,05,54,-3.00
2008,04,01,05,55,-3.00
2008,04,01,05,56,-3.00
2008,04,01,05,57,-3.00
2008,04,01,05,58,-3.00
2008,04,01,05,59,-3.10
2008,04,01,06,00,-3.10
2008,04,01,06,01,-3.10
2008,04,01,06,02,-3.10
2008,04,01,06,03,-3.10
2008,04,01,06,04,-3.10
2008,04,01,06,05,-3.10
2008,04,01,06,06,-3.10
2008,04,01,06,07,-3.10
2008,04,01,06,08,-3.10
2008,04,01,06,09,-3.10
2008,04,01,06,10,-3.10
2008,04,01,06,11,-3.10
2008,04,01,06,12,-3.20
2008,04,01,06,13,-3.20
2008,04,01,06,14,-3.20
2008,04,01,06,15,-3.20
2008,04,01,06,16,-3.20
2008,04,01,06,17,-3.20
2008,04,01,06,18,-3.20
2008,04,01,06,19,-3.20
2008,04,01,06,20,-3.20
2008,04,01,06,21,-3.20
2008,04,01,06,22,-3.20
2008,04,01,06,23,-3.20
2008,04,01,06,24,-3.20
2008,04,01,06,25,-3.20
2008,04,01,06,26,-3.20
2008,04,01,06,27,-3.20
2008,04,01,06,28,-3.20
2008,04,01,06,29,-3.20
2008,04,01,06,30,-3.20
2008,04,01,06,31,-3.20
2008,04,01,06,32,-3.20
2008,04,01,06,33,-3.20
2008,04,01,06,34,-3.20
2008,04,01,06,35,-3.20
2008,04,01,06,36,-3.20
2008,04,01,06,37,-3.20
2008,04,01,06,38,-3.30
2008,04,01,06,39,-3.30
2008,04,01,06,40,-3.30
2008,04,01,06,41,-3.30
2008,04,01,06,42,-3.30
2008,04,01,06,43,-3.30
2008,04,01,06,44,-3.30
2008,04,01,06,45,-3.30
2008,04,01,06,46,-3.30
2008,04,01,06,47,-3.30
2008,04,01,06,48,-3.40
2008,04,01,06,49,-3.40
2008,04,01,06,50,-3.40
2008,04,01,06,51,-3.40
2008,04,01,06,52,-3.40
2008,04,01,06,53,-3.40
2008,04,01,06,54,-3.40
2008,04,01,06,55,-3.40
2008,04,01,06,56,-3.40
2008,04,01,06,57,-3.40
2008,04,01,06,58,-3.40
2008,04,01,06,59,-3.40
2008,04,01,07,00,-3.40
2008,04,01,07,01,-3.40
2008,04,01,07,02,-3.40
2008,04,01,07,03,-3.40
2008,04,01,07,04,-3.40
2008,04,01,07,05,-3.40
2008,04,01,07,06,-3.40
2008,04,01,07,07,-3.40
2008,04,01,07,08,-3.40
2008,04,01,07,09,-3.40
2008,04,01,07,10,-3.40
2008,04,01,07,11,-3.40
2008,04,01,07,12,-3.40
2008,04,01,07,13,-3.40
2008,04,01,07,14,-3.40
2008,04,01,07,15,-3.40
2008,04,01,07,16,-3.40
2008,04,01,07,17,-3.40
2008,04,01,07,18,-3.40
2008,04,01,07,19,-3.40
2008,04,01,07,20,-3.40
2008,04,01,07,21,-3.30
2008,04,01,07,22,-3.30
2008,04,01,07,23,-3.30
2008,04,01,07,24,-3.30
2008,04,01,07,25,-3.30
2008,04,01,07,26,-3.30
2008,04,01,07,27,-3.30
2008,04,01,07,28,-3.30
2008,04,01,07,29,-3.30
2008,04,01,07,30,-3.20
2008,04,01,07,31,-3.20
2008,04,01,07,32,-3.20
2008,04,01,07,33,-3.20
2008,04,01,07,34,-3.20
2008,04,01,07,35,-3.20
2008,04,01,07,36,-3.20
2008,04,01,07,37,-3.20
2008,04,01,07,38,-3.20
2008,04,01,07,39,-3.20
2008,04,01,07,40,-3.20
2008,04,01,07,41,-3.20
2008,04,01,07,42,-3.20
2008,04,01,07,43,-3.20
2008,04,01,07,44,-3.20
2008,04,01,07,45,-3.20
2008,04,01,07,46,-3.20
2008,04,01,07,47,-3.20
2008,04,01,07,48,-3.20
2008,04,01,07,49,-3.20
2008,04,01,07,50,-3.20
2008,04,01,07,51,-3.20
2008,04,01,07,52,-3.20
2008,04,01,07,53,-3.20
2008,04,01,07,54,-3.10
2008,04,01,07,55,-3.10
2008,04,01,07,56,-3.10
2008,04,01,07,57,-3.10
2008,04,01,07,58,-3.10
2008,04,01,07,59,-3.10
2008,04,01,08,00,-3.00
2008,04,01,08,01,-3.00
2008,04,01,08,02,-2.90
2008,04,01,08,03,-2.90
2008,04,01,08,04,-2.90
2008,04,01,08,05,-2.80
2008,04,01,08,06,-2.80
2008,04,01,08,07,-2.80
2008,04,01,08,08,-2.80
2008,04,01,08,09,-2.70
2008,04,01,08,10,-2.70
2008,04,01,08,11,-2.70
2008,04,01,08,12,-2.70
2008,04,01,08,13,-2.60
2008,04,01,08,14,-2.60
2008,04,01,08,15,-2.50
2008,04,01,08,16,-2.50
2008,04,01,08,17,-2.40
2008,04,01,08,18,-2.40
2008,04,01,08,19,-2.30
2008,04,01,08,20,-2.30
2008,04,01,08,21,-2.20
2008,04,01,08,22,-2.20
2008,04,01,08,23,-2.10
2008,04,01,08,24,-2.10
2008,04,01,08,25,-2.00
2008,04,01,08,26,-1.90
2008,04,01,08,27,-1.90
2008,04,01,08,28,-1.80
2008,04,01,08,29,-1.80
2008,04,01,08,30,-1.70
2008,04,01,08,31,-1.70
2008,04,01,08,32,-1.60
2008,04,01,08,33,-1.60
2008,04,01,08,34,-1.60
2008,04,01,08,35,-1.50
2008,04,01,08,36,-1.50
2008,04,01,08,37,-1.40
2008,04,01,08,38,-1.30
2008,04,01,08,39,-1.30
2008,04,01,08,40,-1.30
2008,04,01,08,41,-1.20
2008,04,01,08,42,-1.20
2008,04,01,08,43,-1.10
2008,04,01,08,44,-1.10
2008,04,01,08,45,-1.10
2008,04,01,08,46,-1.00
2008,04,01,08,47,-1.00
2008,04,01,08,48,-1.00
2008,04,01,08,49,-0.90
2008,04,01,08,50,-0.90
2008,04,01,08,51,-0.80
2008,04,01,08,52,-0.80
2008,04,01,08,53,-0.70
2008,04,01,08,54,-0.70
2008,04,01,08,55,-0.60
2008,04,01,08,56,-0.50
2008,04,01,08,57,-0.40
2008,04,01,08,58,-0.40
2008,04,01,08,59,-0.30
2008,04,01,09,00,-0.20
2008,04,01,09,01,-0.20
2008,04,01,09,02,-0.10
2008,04,01,09,03,0.00
2008,04,01,09,04,0.00
2008,04,01,09,05,0.10
2008,04,01,09,06,0.10
2008,04,01,09,07,0.20
2008,04,01,09,08,0.30
2008,04,01,09,09,0.30
2008,04,01,09,10,0.40
2008,04,01,09,11,0.40
2008,04,01,09,12,0.50
2008,04,01,09,13,0.60
2008,04,01,09,14,0.60
2008,04,01,09,15,0.70
2008,04,01,09,16,0.80
2008,04,01,09,17,0.80
2008,04,01,09,18,0.80
2008,04,01,09,19,0.90
2008,04,01,09,20,0.90
2008,04,01,09,21,1.00
2008,04,01,09,22,1.10
2008,04,01,09,23,1.10
2008,04,01,09,24,1.20
2008,04,01,09,25,1.30
2008,04,01,09,26,1.30
2008,04,01,09,27,1.30
2008,04,01,09,28,1.30
2008,04,01,09,29,1.40
2008,04,01,09,30,1.40
2008,04,01,09,31,1.40
2008,04,01,09,32,1.50
2008,04,01,09,33,1.50
2008,04,01,09,34,1.50
2008,04,01,09,35,1.50
2008,04,01,09,36,1.50
2008,04,01,09,37,1.50
2008,04,01,09,38,1.60
2008,04,01,09,39,1.60
2008,04,01,09,40,1.70
2008,04,01,09,41,1.80
2008,04,01,09,42,1.80
2008,04,01,09,43,1.80
2008,04,01,09,44,1.80
2008,04,01,09,45,1.90
2008,04,01,09,46,1.90
2008,04,01,09,47,1.90
2008,04,01,09,48,1.90
2008,04,01,09,49,1.90
2008,04,01,09,50,1.90
2008,04,01,09,51,2.00
2008,04,01,09,52,2.00
2008,04,01,09,53,2.10
2008,04,01,09,54,2.10
2008,04,01,09,55,2.20
2008,04,01,09,56,2.20
2008,04,01,09,57,2.20
2008,04,01,09,58,2.20
2008,04,01,09,59,2.30
2008,04,01,10,00,2.30
2008,04,01,10,01,2.40
2008,04,01,10,02,2.40
2008,04,01,10,03,2.40
2008,04,01,10,04,2.50
2008,04,01,10,05,2.50
2008,04,01,10,06,2.60
2008,04,01,10,07,2.60
2008,04,01,10,08,2.60
2008,04,01,10,09,2.70
2008,04,01,10,10,2.70
2008,04,01,10,11,2.70
2008,04,01,10,12,2.80
2008,04,01,10,13,2.80
2008,04,01,10,14,2.80
2008,04,01,10,15,2.80
2008,04,01,10,16,2.90
2008,04,01,10,17,2.90
2008,04,01,10,18,3.00
2008,04,01,10,19,3.10
2008,04,01,10,20,3.20
2008,04,01,10,21,3.30
2008,04,01,10,22,3.40
2008,04,01,10,23,3.50
2008,04,01,10,24,3.50
2008,04,01,10,25,3.60
2008,04,01,10,26,3.60
2008,04,01,10,27,3.60
2008,04,01,10,28,3.60
2008,04,01,10,29,3.60
2008,04,01,10,30,3.60
2008,04,01,10,31,3.70
2008,04,01,10,32,3.70
2008,04,01,10,33,3.70
2008,04,01,10,34,3.80
2008,04,01,10,35,3.80
2008,04,01,10,36,3.90
2008,04,01,10,37,4.00
2008,04,01,10,38,4.10
2008,04,01,10,39,4.20
2008,04,01,10,40,4.20
2008,04,01,10,41,4.30
2008,04,01,10,42,4.40
2008,04,01,10,43,4.40
2008,04,01,10,44,4.40
2008,04,01,10,45,4.50
2008,04,01,10,46,4.50
2008,04,01,10,47,4.60
2008,04,01,10,48,4.70
2008,04,01,10,49,4.60
2008,04,01,10,50,4.60
2008,04,01,10,51,4.50
2008,04,01,10,52,4.40
2008,04,01,10,53,4.40
2008,04,01,10,54,4.40
2008,04,01,10,55,4.30
2008,04,01,10,56,4.40
2008,04,01,10,57,4.40
2008,04,01,10,58,4.50
2008,04,01,10,59,4.50
2008,04,01,11,00,4.50
2008,04,01,11,01,4.50
2008,04,01,11,02,4.50
2008,04,01,11,03,4.60
2008,04,01,11,04,4.70
2008,04,01,11,05,4.80
2008,04,01,11,06,4.90
2008,04,01,11,07,5.00
2008,04,01,11,08,5.10
2008,04,01,11,09,5.20
2008,04,01,11,10,5.20
2008,04,01,11,11,5.20
2008,04,01,11,12,5.10
2008,04,01,11,13,5.00
2008,04,01,11,14,4.80
2008,04,01,11,15,4.80
2008,04,01,11,16,4.70
2008,04,01,11,17,4.80
2008,04,01,11,18,4.80
2008,04,01,11,19,4.90
2008,04,01,11,20,5.00
2008,04,01,11,21,5.10
2008,04,01,11,22,5.10
2008,04,01,11,23,5.10
2008,04,01,11,24,5.10
2008,04,01,11,25,5.10
2008,04,01,11,26,5.10
2008,04,01,11,27,5.10
2008,04,01,11,28,5.10
2008,04,01,11,29,5.10
2008,04,01,11,30,5.20
2008,04,01,11,31,5.20
2008,04,01,11,32,5.30
2008,04,01,11,33,5.40
2008,04,01,11,34,5.40
2008,04,01,11,35,5.40
2008,04,01,11,36,5.50
2008,04,01,11,37,5.60
2008,04,01,11,38,5.60
2008,04,01,11,39,5.60
2008,04,01,11,40,5.60
2008,04,01,11,41,5.70
2008,04,01,11,42,5.70
2008,04,01,11,43,5.70
2008,04,01,11,44,5.70
2008,04,01,11,45,5.80
2008,04,01,11,46,5.80
2008,04,01,11,47,5.90
2008,04,01,11,48,5.90
2008,04,01,11,49,6.00
2008,04,01,11,50,6.10
2008,04,01,11,51,6.20
2008,04,01,11,52,6.30
2008,04,01,11,53,6.30
2008,04,01,11,54,6.30
2008,04,01,11,55,6.30
2008,04,01,11,56,6.30
2008,04,01,11,57,6.30
2008,04,01,11,58,6.20
2008,04,01,11,59,6.20
2008,04,01,12,00,6.10
2008,04,01,12,01,6.10
2008,04,01,12,02,6.10
2008,04,01,12,03,6.10
2008,04,01,12,04,6.10
2008,04,01,12,05,6.10
2008,04,01,12,06,6.20
2008,04,01,12,07,6.20
2008,04,01,12,08,6.20
2008,04,01,12,09,6.30
2008,04,01,12,10,6.40
2008,04,01,12,11,6.50
2008,04,01,12,12,6.60
2008,04,01,12,13,6.70
2008,04,01,12,14,6.80
2008,04,01,12,15,6.90
2008,04,01,12,16,7.00
2008,04,01,12,17,6.90
2008,04,01,12,18,6.90
2008,04,01,12,19,6.90
2008,04,01,12,20,6.90
2008,04,01,12,21,7.00
2008,04,01,12,22,7.00
2008,04,01,12,23,7.10
2008,04,01,12,24,7.20
2008,04,01,12,25,7.20
2008,04,01,12,26,7.20
2008,04,01,12,27,7.20
2008,04,01,12,28,7.20
2008,04,01,12,29,7.30
2008,04,01,12,30,7.30
2008,04,01,12,31,7.40
2008,04,01,12,32,7.40
2008,04,01,12,33,7.50
2008,04,01,12,34,7.60
2008,04,01,12,35,7.60
2008,04,01,12,36,7.70
2008,04,01,12,37,7.80
2008,04,01,12,38,7.80
2008,04,01,12,39,7.70
2008,04,01,12,40,7.60
2008,04,01,12,41,7.60
2008,04,01,12,42,7.50
2008,04,01,12,43,7.40
2008,04,01,12,44,7.20
2008,04,01,12,45,7.20
2008,04,01,12,46,7.20
2008,04,01,12,47,7.10
2008,04,01,12,48,7.00
2008,04,01,12,49,7.00
2008,04,01,12,50,6.90
2008,04,01,12,51,6.90
2008,04,01,12,52,6.80
2008,04,01,12,53,6.80
2008,04,01,12,54,6.80
2008,04,01,12,55,6.90
2008,04,01,12,56,6.90
2008,04,01,12,57,7.00
2008,04,01,12,58,7.10
2008,04,01,12,59,7.20
2008,04,01,13,00,7.20
2008,04,01,13,01,7.30
2008,04,01,13,02,7.40
2008,04,01,13,03,7.60
2008,04,01,13,04,7.70
2008,04,01,13,05,7.80
2008,04,01,13,06,7.90
2008,04,01,13,07,8.10
2008,04,01,13,08,8.20
2008,04,01,13,09,8.30
2008,04,01,13,10,8.40
2008,04,01,13,11,8.40
2008,04,01,13,12,8.50
2008,04,01,13,13,8.50
2008,04,01,13,14,8.50
2008,04,01,13,15,8.40
2008,04,01,13,16,8.50
2008,04,01,13,17,8.50
2008,04,01,13,18,8.50
2008,04,01,13,19,8.60
2008,04,01,13,20,8.60
2008,04,01,13,21,8.60
2008,04,01,13,22,8.60
2008,04,01,13,23,8.60
2008,04,01,13,24,8.50
2008,04,01,13,25,8.50
2008,04,01,13,26,8.40
2008,04,01,13,27,8.30
2008,04,01,13,28,8.30
2008,04,01,13,29,8.30
2008,04,01,13,30,8.30
2008,04,01,13,31,8.30
2008,04,01,13,32,8.30
2008,04,01,13,33,8.30
2008,04,01,13,34,8.30
2008,04,01,13,35,8.20
2008,04,01,13,36,8.20
2008,04,01,13,37,8.10
2008,04,01,13,38,8.00
2008,04,01,13,39,7.90
2008,04,01,13,40,7.80
2008,04,01,13,41,7.80
2008,04,01,13,42,7.90
2008,04,01,13,43,8.00
2008,04,01,13,44,8.00
2008,04,01,13,45,8.20
2008,04,01,13,46,8.30
2008,04,01,13,47,8.40
2008,04,01,13,48,8.60
2008,04,01,13,49,8.70
2008,04,01,13,50,8.80
2008,04,01,13,51,8.90
2008,04,01,13,52,8.80
2008,04,01,13,53,8.80
2008,04,01,13,54,8.90
2008,04,01,13,55,8.90
2008,04,01,13,56,8.90
2008,04,01,13,57,9.00
2008,04,01,13,58,9.00
2008,04,01,13,59,8.90
2008,04,01,14,00,8.80
2008,04,01,14,01,8.80
2008,04,01,14,02,8.70
2008,04,01,14,03,8.70
2008,04,01,14,04,8.60
2008,04,01,14,05,8.60
2008,04,01,14,06,8.60
2008,04,01,14,07,8.60
2008,04,01,14,08,8.60
2008,04,01,14,09,8.60
2008,04,01,14,10,8.70
2008,04,01,14,11,8.70
2008,04,01,14,12,8.80
2008,04,01,14,13,8.80
2008,04,01,14,14,8.80
2008,04,01,14,15,8.70
2008,04,01,14,16,8.60
2008,04,01,14,17,8.60
2008,04,01,14,18,8.50
2008,04,01,14,19,8.60
2008,04,01,14,20,8.60
2008,04,01,14,21,8.60
2008,04,01,14,22,8.60
2008,04,01,14,23,8.60
2008,04,01,14,24,8.60
2008,04,01,14,25,8.60
2008,04,01,14,26,8.60
2008,04,01,14,27,8.60
2008,04,01,14,28,8.60
2008,04,01,14,29,8.60
2008,04,01,14,30,8.50
2008,04,01,14,31,8.50
2008,04,01,14,32,8.50
2008,04,01,14,33,8.50
2008,04,01,14,34,8.50
2008,04,01,14,35,8.50
2008,04,01,14,36,8.40
2008,04,01,14,37,8.30
2008,04,01,14,38,8.30
2008,04,01,14,39,8.20
2008,04,01,14,40,8.20
2008,04,01,14,41,8.20
2008,04,01,14,42,8.10
2008,04,01,14,43,8.10
2008,04,01,14,44,8.00
2008,04,01,14,45,7.90
2008,04,01,14,46,7.80
2008,04,01,14,47,7.80
2008,04,01,14,48,7.80
2008,04,01,14,49,7.90
2008,04,01,14,50,7.90
2008,04,01,14,51,8.00
2008,04,01,14,52,8.10
2008,04,01,14,53,8.10
2008,04,01,14,54,8.10
2008,04,01,14,55,8.10
2008,04,01,14,56,8.10
2008,04,01,14,57,8.20
2008,04,01,14,58,8.20
2008,04,01,14,59,8.30
2008,04,01,15,00,8.30
2008,04,01,15,01,8.30
2008,04,01,15,02,8.30
2008,04,01,15,03,8.20
2008,04,01,15,04,8.20
2008,04,01,15,05,8.10
2008,04,01,15,06,8.00
2008,04,01,15,07,7.90
2008,04,01,15,08,7.80
2008,04,01,15,09,7.80
2008,04,01,15,10,7.80
2008,04,01,15,11,7.70
2008,04,01,15,12,7.70
2008,04,01,15,13,7.70
2008,04,01,15,14,7.70
2008,04,01,15,15,7.70
2008,04,01,15,16,7.70
2008,04,01,15,17,7.70
2008,04,01,15,18,7.80
2008,04,01,15,19,7.80
2008,04,01,15,20,7.90
2008,04,01,15,21,7.90
2008,04,01,15,22,7.90
2008,04,01,15,23,7.90
2008,04,01,15,24,7.80
2008,04,01,15,25,7.80
2008,04,01,15,26,7.80
2008,04,01,15,27,7.80
2008,04,01,15,28,7.80
2008,04,01,15,29,7.80
2008,04,01,15,30,7.80
2008,04,01,15,31,7.70
2008,04,01,15,32,7.70
2008,04,01,15,33,7.60
2008,04,01,15,34,7.60
2008,04,01,15,35,7.60
2008,04,01,15,36,7.60
2008,04,01,15,37,7.60
2008,04,01,15,38,7.60
2008,04,01,15,39,7.60
2008,04,01,15,40,7.60
2008,04,01,15,41,7.60
2008,04,01,15,42,7.50
2008,04,01,15,43,7.50
2008,04,01,15,44,7.40
2008,04,01,15,45,7.30
2008,04,01,15,46,7.30
2008,04,01,15,47,7.30
2008,04,01,15,48,7.30
2008,04,01,15,49,7.30
2008,04,01,15,50,7.40
2008,04,01,15,51,7.40
2008,04,01,15,52,7.40
2008,04,01,15,53,7.40
2008,04,01,15,54,7.30
2008,04,01,15,55,7.30
2008,04,01,15,56,7.30
2008,04,01,15,57,7.30
2008,04,01,15,58,7.30
2008,04,01,15,59,7.30
2008,04,01,16,00,7.30
2008,04,01,16,01,7.30
2008,04,01,16,02,7.30
2008,04,01,16,03,7.30
2008,04,01,16,04,7.30
2008,04,01,16,05,7.30
2008,04,01,16,06,7.30
2008,04,01,16,07,7.30
2008,04,01,16,08,7.30
2008,04,01,16,09,7.40
2008,04,01,16,10,7.40
2008,04,01,16,11,7.40
2008,04,01,16,12,7.40
2008,04,01,16,13,7.40
2008,04,01,16,14,7.40
2008,04,01,16,15,7.40
2008,04,01,16,16,7.40
2008,04,01,16,17,7.40
2008,04,01,16,18,7.30
2008,04,01,16,19,7.30
2008,04,01,16,20,7.30
2008,04,01,16,21,7.30
2008,04,01,16,22,7.30
2008,04,01,16,23,7.20
2008,04,01,16,24,7.20
2008,04,01,16,25,7.30
2008,04,01,16,26,7.30
2008,04,01,16,27,7.20
2008,04,01,16,28,7.20
2008,04,01,16,29,7.20
2008,04,01,16,30,7.20
2008,04,01,16,31,7.10
2008,04,01,16,32,7.10
2008,04,01,16,33,7.10
2008,04,01,16,34,7.10
2008,04,01,16,35,7.10
2008,04,01,16,36,7.10
2008,04,01,16,37,7.10
2008,04,01,16,38,7.10
2008,04,01,16,39,7.10
2008,04,01,16,40,7.10
2008,04,01,16,41,7.10
2008,04,01,16,42,7.10
2008,04,01,16,43,7.10
2008,04,01,16,44,7.10
2008,04,01,16,45,7.10
2008,04,01,16,46,7.20
2008,04,01,16,47,7.10
2008,04,01,16,48,7.10
2008,04,01,16,49,7.10
2008,04,01,16,50,7.00
2008,04,01,16,51,7.00
2008,04,01,16,52,6.90
2008,04,01,16,53,6.90
2008,04,01,16,54,6.90
2008,04,01,16,55,6.90
2008,04,01,16,56,6.90
2008,04,01,16,57,6.90
2008,04,01,16,58,6.90
2008,04,01,16,59,6.90
2008,04,01,17,00,6.80
2008,04,01,17,01,6.80
2008,04,01,17,02,6.80
2008,04,01,17,03,6.80
2008,04,01,17,04,6.80
2008,04,01,17,05,6.80
2008,04,01,17,06,6.80
2008,04,01,17,07,6.70
2008,04,01,17,08,6.70
2008,04,01,17,09,6.70
2008,04,01,17,10,6.70
2008,04,01,17,11,6.70
2008,04,01,17,12,6.70
2008,04,01,17,13,6.70
2008,04,01,17,14,6.70
2008,04,01,17,15,6.60
2008,04,01,17,16,6.60
2008,04,01,17,17,6.60
2008,04,01,17,18,6.60
2008,04,01,17,19,6.60
2008,04,01,17,20,6.60
2008,04,01,17,21,6.60
2008,04,01,17,22,6.50
2008,04,01,17,23,6.50
2008,04,01,17,24,6.50
2008,04,01,17,25,6.40
2008,04,01,17,26,6.40
2008,04,01,17,27,6.40
2008,04,01,17,28,6.40
2008,04,01,17,29,6.40
2008,04,01,17,30,6.30
2008,04,01,17,31,6.30
2008,04,01,17,32,6.30
2008,04,01,17,33,6.30
2008,04,01,17,34,6.30
2008,04,01,17,35,6.20
2008,04,01,17,36,6.20
2008,04,01,17,37,6.20
2008,04,01,17,38,6.20
2008,04,01,17,39,6.20
2008,04,01,17,40,6.20
2008,04,01,17,41,6.20
2008,04,01,17,42,6.20